^^
Station Historical Data
Daily Summary for February 21, 2017 Units:  Metric    English   Both
« Previous Day
Next Day »
Daily Weekly Monthly Yearly Custom
  High: Low: Average:
Temperature: 24.8 °C 19.9 °C 21.9 °C
Dew Point: 14.9 °C 14.4 °C 14.7 °C
Humidity: 71% 53% 64%
Wind Speed: 13km/h 0km/h 2.1km/h
Wind Gust: 13km/h - -
Wind- - South
Pressure: 1006.7 hPa 1005.3 hPa -
Precipitation: 0 mm    
Historical Graphs
 
 
Tabular Data for February 21, 2017
Time Temperature Dew Point Pressure Wind Wind Speed Wind Gust Humidity Rainfall Rate (Hourly) solar Conditions
00:05 24.8 °C 14.6 °C 1006.7 hPa South 7.9 km/h 9.7 km/h 53% 0 mm 0.0 W/m2
00:15 24.5 °C 14.6 °C 1006.7 hPa South 9.7 km/h 11.3 km/h 54% 0 mm 0.0 W/m2
00:26 24.3 °C 14.4 °C 1006.7 hPa South 11.1 km/h 12.9 km/h 54% 0 mm 0.0 W/m2
00:41 24.2 °C 14.6 °C 1006.7 hPa South 11.1 km/h 11.3 km/h 55% 0 mm 0.0 W/m2
00:47 24.2 °C 14.6 °C 1006.7 hPa South 7.9 km/h 12.9 km/h 55% 0 mm 0.0 W/m2
00:56 24.2 °C 14.6 °C 1006.7 hPa South 13 km/h 13 km/h 55% 0 mm 0.0 W/m2
01:06 24 °C 14.7 °C 1006.7 hPa South 11.1 km/h 12.9 km/h 56% 0 mm 0.0 W/m2
01:21 23.8 °C 14.5 °C 1006.3 hPa South 6.4 km/h 9.7 km/h 56% 0 mm 0.0 W/m2
01:31 23.8 °C 14.8 °C 1006.3 hPa South 6.4 km/h 8 km/h 57% 0 mm 0.0 W/m2
01:35 23.6 °C 14.6 °C 1006.3 hPa Calm     57% 0 mm 0.0 W/m2
01:46 23.4 °C 14.7 °C 1006.3 hPa South 6.4 km/h 9.7 km/h 58% 0 mm 0.0 W/m2
02:12 23.3 °C 14.8 °C 1006 hPa South 9.7 km/h 12.9 km/h 59% 0 mm 0.0 W/m2
02:32 22.8 °C 14.9 °C 1006 hPa South 6.4 km/h 8 km/h 61% 0 mm 0.0 W/m2
02:48 22.5 °C 14.9 °C 1006 hPa South 3.2 km/h 4.8 km/h 62% 0 mm 0.0 W/m2
02:58 22.3 °C 14.9 °C 1005.6 hPa Calm     63% 0 mm 0.0 W/m2
03:09 21.9 °C 14.8 °C 1005.6 hPa Calm     64% 0 mm 0.0 W/m2
03:15 21.8 °C 14.7 °C 1005.6 hPa Calm     64% 0 mm 0.0 W/m2
03:20 21.7 °C 14.8 °C 1005.6 hPa Calm     65% 0 mm 0.0 W/m2
03:30 21.8 °C 14.7 °C 1005.6 hPa Calm     64% 0 mm 0.0 W/m2
03:45 22.1 °C 14.7 °C 1005.6 hPa Calm     63% 0 mm 0.0 W/m2
03:50 22.2 °C 14.8 °C 1005.6 hPa Calm     63% 0 mm 0.0 W/m2
03:56 22.2 °C 14.8 °C 1005.6 hPa Calm     63% 0 mm 0.0 W/m2
04:01 22.2 °C 14.8 °C 1005.6 hPa Calm     63% 0 mm 0.0 W/m2
04:06 22.1 °C 14.7 °C 1005.3 hPa Calm     63% 0 mm 0.0 W/m2
04:11 22.1 °C 14.7 °C 1005.3 hPa Calm     63% 0 mm 0.0 W/m2
04:16 22 °C 14.6 °C 1005.6 hPa Calm     63% 0 mm 0.0 W/m2
04:21 21.9 °C 14.8 °C 1005.6 hPa Calm     64% 0 mm 0.0 W/m2
04:26 21.9 °C 14.8 °C 1005.6 hPa Calm     64% 0 mm 0.0 W/m2
04:31 21.8 °C 14.7 °C 1005.6 hPa Calm     64% 0 mm 0.0 W/m2
04:36 21.7 °C 14.8 °C 1005.6 hPa Calm     65% 0 mm 0.0 W/m2
04:42 21.4 °C 14.8 °C 1005.3 hPa Calm     66% 0 mm 0.0 W/m2
04:47 21.2 °C 14.8 °C 1005.6 hPa Calm     67% 0 mm 0.0 W/m2
04:52 21.1 °C 14.7 °C 1005.6 hPa Calm     67% 0 mm 0.0 W/m2
04:57 21.2 °C 14.8 °C 1005.6 hPa Calm     67% 0 mm 0.0 W/m2
05:02 21.1 °C 14.7 °C 1005.6 hPa Calm     67% 0 mm 0.0 W/m2
05:07 21 °C 14.6 °C 1005.6 hPa Calm     67% 0 mm 0.0 W/m2
05:13 20.8 °C 14.4 °C 1005.6 hPa Calm     67% 0 mm 0.0 W/m2
05:18 20.7 °C 14.6 °C 1005.6 hPa Calm     68% 0 mm 0.0 W/m2
05:23 20.8 °C 14.7 °C 1005.6 hPa Calm     68% 0 mm 0.0 W/m2
05:28 20.8 °C 14.4 °C 1005.6 hPa Calm     67% 0 mm 0.0 W/m2
05:33 20.8 °C 14.4 °C 1005.6 hPa Calm     67% 0 mm 0.0 W/m2
05:39 20.7 °C 14.6 °C 1005.6 hPa Calm     68% 0 mm 0.0 W/m2
05:44 20.7 °C 14.6 °C 1005.6 hPa Calm     68% 0 mm 0.0 W/m2
05:49 20.7 °C 14.6 °C 1005.6 hPa Calm     68% 0 mm 0.0 W/m2
05:54 20.7 °C 14.6 °C 1005.6 hPa Calm     68% 0 mm 0.0 W/m2
05:59 20.6 °C 14.5 °C 1005.6 hPa Calm     68% 0 mm 0.0 W/m2
06:04 20.5 °C 14.6 °C 1005.6 hPa Calm     69% 0 mm 0.0 W/m2
06:10 20.4 °C 14.5 °C 1005.6 hPa Calm     69% 0 mm 0.0 W/m2
06:15 20.4 °C 14.7 °C 1005.6 hPa Calm     70% 0 mm 0.0 W/m2
06:21 20.2 °C 14.6 °C 1005.6 hPa Calm     70% 0 mm 0.0 W/m2
06:27 20.1 °C 14.5 °C 1005.6 hPa Calm     70% 0 mm 0.0 W/m2
06:37 19.9 °C 14.5 °C 1005.6 hPa Calm     71% 0 mm 0.0 W/m2
Canyon Roadhouse, Fishriver Canyon, Namibia
Compliments of Weather Underground - 1.75 mb